Время (UTC), дата Ветер
(°,м/с) 
Видим.   Явления Облачность Т
(°С)
Тd
(°С)
f(%) Тe
(°С)
Pmin
(гПа)
dP
(гПа)
Po
(мм)
O2
(г/м3)
Тmin Tmax R s Состояние
почвы
00 21.01.15 190 (Ю) 20000 м  в посл. час ливневой дождь  10/8 900 м кучево-дожд., средняя 
[Cb calv|Ac und]
+4 +2.9 92 +4  1023.8  0.6  727  288           
03 21.01.15 170 (Ю) 10 км  в посл. час ливневой дождь  10/8 600 м кучево-дожд., средняя 
[Cb calv|Ac und]
+3.7 +2.8 94 +2  1023.7  -0.2  726  288  +2.3    0.4     
06 21.01.15 230 (ЮЗ) 20000 м    10/3 600 м средняя, верхняя 
[Sc|Ac trans|Cs]
+4.7 +3.5 92 +4  1024.1  0.5  727  287           
09 21.01.15 170 (Ю) 20000 м    10/3 600 м средняя, верхняя 
[Sc|Ac trans|Cs]
+9.3 +4 69 +10  1022.9  -0.2  727  282           
12 21.01.15 080 (В) 20000 м    10/6 1200 м кучево-дожд., средняя 
[Cb cap|Ac und]
+8 +4.1 76 +9  1022.3  -0.8  726  284           
15 21.01.15 070 (В) 4000 м  дымка  8/3 1000 м средняя 
[Sc|Ac As]
+4.5 +3.3 92 +4  1023  726  287    +9.9       
18 21.01.15 060 (СВ) 0400 м  туман  10/0 средняя 
[Ac und]
+2 +1.1 94 +3  1023.4  0.1  726  290           
21 21.01.15 120 (ЮВ) 4000 м  дымка{туман}  3/0 средняя 
[Ac trans]
+0.2 -0.9 92 -2  1023.9  0.1  726  292           
00 22.01.15 120 (ЮВ) 3000 м  дымка{туман}  3/3 240 м 
[St]
-0.7 -1.5 94 -3  1024.2  -0.1  726  293           
03 22.01.15 130 (ЮВ) 0200 м  туман [диам. гололёда 0 мм]  ?/?  
-0.3 -1 95 -3  1024.6  0.4  726  293  -0.9         
06 22.01.15 150 (ЮВ) 0400 м  туман [диам. гололёда 1 мм]  ?/?  
-0.5 -1 96 -4  1026.1  1.4  728  294           
09 22.01.15 160 (Ю) 10 км  {туман}  10/8 120 м средняя 
[St|Ac und]
+1 +0.3 95 -2  1026.5  0.7  728  292           
12 22.01.15 150 (ЮВ) 20000 м  {туман}  10/6 180 м средняя 
[St|Ac und]
+2 +0.2 88 -1  1026.9  0.6  728  291           
15 22.01.15 150 (ЮВ) 2000 м  дымка  10/10 100 м 
[St]
-0 -0.8 94 -3  1028.2  0.8  729  294    +2.4       
18 22.01.15 160 (Ю) 2000 м  дымка{туман}  10/10 60 м 
[St]
-0.1 -0.7 96 -4  1028.3  0.1  729  294           
21 22.01.15 130 (ЮВ) 0500 м  туман  ?/?  
-0.2 -0.8 96 -3  1028.8  0.5  730  294           
00 23.01.15 110 (В) 0400 м  туман [диам. гололёда 1 мм]  ?/?  
-0.5 -1.1 96 -2  1029.1  0.2  730  295           
03 23.01.15 150 (ЮВ) 0200 м  туман [диам. гололёда 1 мм]  ?/?  
-0.6 -1.2 96 -3  1029.7  0.6  730  295  -1.2         
06 23.01.15 130 (ЮВ) 0200 м  туман [диам. гололёда 2 мм]  ?/?  
-0.7 -1.3 96 -4  1030.5  0.8  731  295           
09 23.01.15 140 (ЮВ) 7{10}  3000 м  дымка{туман}  10/10 100 м 
[St]
-0.1 -0.7 96 -4  1030.7  0.3  731  295           
12 23.01.15 140 (ЮВ) 7-10{11}  4000 м  дымка{туман}  10/10 120 м 
[St]
+0.4 -0.3 95 -3  1030.3  -0.3  731  294           
15 23.01.15 100 (В) 7{12}  0200 м  туман  ?/?  
-1.2 -1.8 96 -5  1031.5  0.8  731  296    +0.7       
18 23.01.15 110 (В) 8-10{12}  0200 м  туман [диам. гололёда 1 мм]  ?/?  
-1.6 -2.2 96 -6  1031.6  0.1  731  297           
21 23.01.15 110 (В) 7-10{11}  0200 м  туман [диам. гололёда 2 мм]  ?/?  
-2.2 -2.8 96 -7  1031.2  -0.5  731  297           
00 24.01.15 100 (В) 8-10{10}  0200 м  туман [диам. гололёда 3 мм]  ?/?  
-2.9 -3.5 96 -8  1030  -1.3  730  298           
03 24.01.15 110 (В) 10 км  {туман}  10/10 100 м 
[St]
-3.4 -4.1 95 -8  1029  -1  729  298  -3.4         
06 24.01.15 110 (В) 10 км  {туман}  10/10 180 м 
[St]
-4.4 -5.2 94 -10  1029  -0.3  729  299  -4.4         
09 24.01.15 100 (В) 11-14{15}  20000 м    10/6 270 м средняя 
[St|Ac und]
-3.2 -4.7 89 -9  1027.8  -0.9  728  297           
12 24.01.15 100 (В) 11-16{16}  10 км  [диам. гололёда 4 мм]  10/8 150 м средняя 
[St|Ac und]
-2.7 -3.7 93 -9  1026.2  -1.4  727  296           
15 24.01.15 110 (В) 12-15{18}  20000 м    10/8 150 м средняя 
[St|Ac und]
-2.7 -3.6 93 -9  1025.9  -0.2  727  296    -2.6       
18 24.01.15 110 (В) 12-16{17}  20000 м    10/10 180 м 
[St]
-2.7 -3.8 92 -9  1025.1  -0.7  726  296           
21 24.01.15 110 (В) 11-15{16}  20000 м  в посл. час морось{снег}  10/10 180 м 
[St]
-2.6 -3.6 93 -8  1024.8  -0.7  726  296           
00 25.01.15 110 (В) 10-14  20000 м  {снег}  10/10 180 м 
[St]
-2.2 -3.4 91 -8  1024.6  0.1  726  295           
03 25.01.15 120 (ЮВ) 10  20000 м    10/10 200 м 
[St]
-1.7 -3.1 90 -7  1024.4  -0.1  726  295  -2.8    0.0     
06 25.01.15 130 (ЮВ) 10-13{17}  20000 м    10/8 330 м средняя 
[St|Ac und]
-1 -2.9 87 -6  1024.8  0.5  727  294           
09 25.01.15 130 (ЮВ) 12-15{17}  20000 м    10/8 300 м средняя 
[St|Ac und]
+0.4 -1.8 85 -5  1024.6  0.1  727  292           
12 25.01.15 130 (ЮВ) 10-14{16}  20000 м    10/8 240 м средняя 
[St|Ac und]
+0.4 -1.4 88 -4  1023.4  -1.1  726  292           
15 25.01.15 120 (ЮВ) 10  20000 м    10/10 240 м 
[St]
+0.2 -1.3 90 -5  1023.7  0.2  726  292    +1       
18 25.01.15 130 (ЮВ) 8-11{15}  20000 м    10/10 210 м 
[St]
+0 -1.3 91 -4  1023.4  -0.3  726  292           
21 25.01.15 120 (ЮВ) 7-10{13}  20000 м    10/10 120 м 
[St]
-0.1 -1.1 93 -4  1023  -0.4  725  292           
00 26.01.15 120 (ЮВ) 7-10{12}  20000 м    10/10 120 м 
[St]
-0.3 -1.2 93 -4  1022.6  -0.5  725  293           
03 26.01.15 120 (ЮВ) 1800 м  дымка  10/10 50 м 
[St]
-0.4 -1.1 95 -3  1023  0.4  725  293  -0.4         
06 26.01.15 130 (ЮВ) 0200 м  туман [диам. гололёда 1 мм]  ?/?  
-0.9 -1.4 96 -5  1023.7  0.6  726  294  -1         
09 26.01.15 140 (ЮВ) 20000 м  {туман} [диам. гололёда 1 мм]  10/10 270 м 
[St]
+0.6 -0.6 92 -2  1022.6  -0.8  725  292           
12 26.01.15 130 (ЮВ) 20000 м  {туман} [диам. гололёда 1 мм]  10/8 360 м средняя 
[St|Ac und]
+1.4 -0.8 85 -1  1021  -1.3  724  290           
15 26.01.15 070 (В) 4000 м  дымка{дождь}  10/3 200 м средняя 
[St|As trans]
-0.5 -1.2 95 -2  1022.2  0.7  725  293    +1.8  0.0     
18 26.01.15 090 (В) 4000 м  дымка{дождь}  10/10 100 м 
[St]
-0.8 -1.4 96 -2  1022.3  725  293           
21 26.01.15 140 (ЮВ) 0200 м  туман [диам. гололёда 1 мм]  ?/?  
-0.8 -1.4 96 1022  -0.3  725  293           
00 27.01.15 тихо ()   10 км  в посл. час ливневой дождь{туман} [диам. гололёда 2 мм]  9/3 600 м кучево-дожд., средняя 
[Cb calv|Ac As]
-0.3 -0.9 96 -0  1021.8  725  292           
03 27.01.15 200 (Ю) 10 км  слаб. дождь{туман}  8/3 600 м средняя 
[Sc diur, vesp|Ac trans]
+1.7 +1 95 +1  1021.2  -0.2  724  290  -1    0.4     
06 27.01.15 тихо ()   5000 м  дымка{туман}  8/0 средняя 
[Ac trans]
+1.9 +1.2 95 +2  1022.1  0.9  725  290           
09 27.01.15 020 (С) 10 км    9/0 средняя 
[Ac trans]
+5.4 +3.6 88 +6  1021.2  0.1  725  286           
12 27.01.15 040 (СВ) 20000 м    8/3 600 м средняя 
[Sc|Ac trans]
+6.3 +3.3 81 +5  1020.4  -0.6  725  285           
15 27.01.15 050 (СВ) 10 км    6/0 средняя 
[Ac trans]
+3.3 +2.3 93 +2  1021.6  0.6  725  288    +6.9       
18 27.01.15 150 (ЮВ) 0200 м  туман  ?/?  
+0.8 +0.2 96 -1  1022.2  0.6  725  291           
21 27.01.15 150 (ЮВ) 0100 м  туман  ?/?  
+1.9 +1.2 95 -1  1020.4  -1.4  724  289           
00 28.01.15 150 (ЮВ) 0200 м  туман  ?/?  
+0.5 -0 97 -3  1018.9  -1.7  723  291           
03 28.01.15 130 (ЮВ) 0200 м  туман  ?/?  
+0.5 -0.1 96 -3  1017.3  -1.5  721  290  +0.5         
06 28.01.15 120 (ЮВ) 5{10}  0200 м  туман  ?/?  
-0.1 -0.6 97 -3  1016.7  -0.7  721  291  -0.3         
09 28.01.15 100 (В) 8-10  10 км  {туман}  10/8 120 м средняя 
[St|Ac und]
+0.8 +0.3 96 -3  1015  -1.4  720  289           
12 28.01.15 110 (В) 7-10{11}  0600 м  туман  ?/?  
+0.4 -0.2 96 -3  1013.6  -1.5  719  289           
15 28.01.15 120 (ЮВ) 8-10{12}  0900 м  туман  ?/?  
+0 -0.5 96 -4  1013.5  0.1  719  290    +0.9       
18 28.01.15 130 (ЮВ) 7-10  20000 м  {туман}  10/10 180 м 
[St]
-0.2 -0.8 96 -4  1013.4  -0.2  719  290           
21 28.01.15 130 (ЮВ) 6{11}  20000 м    10/10 210 м 
[St]
-0.4 -1.5 92 -4  1012.1  -1.2  718  290           
00 29.01.15 120 (ЮВ) 5{10}  10 км    10/10 150 м 
[St]
-1.4 -2.1 95 -5  1011.9  -0.4  717  291           
03 29.01.15 140 (ЮВ) 20000 м    10/5 200 м средняя 
[St|Ac und]
-1.1 -1.8 95 -3  1012.4  0.6  718  291  -1.4         
06 29.01.15 120 (ЮВ) 20000 м    10/4 600 м средняя 
[Sc|Ac und]
-0.2 -1.1 94 -2  1012.8  0.5  718  290           
09 29.01.15 150 (ЮВ) 20000 м    8/1 600 м средняя, верхняя 
[Sc|Ac trans|Ci sp]
+6.1 +1.2 71 +5  1011.5  718  283           
12 29.01.15 100 (В) 20000 м    10/1 600 м средняя, верхняя 
[Sc|Ac trans|Ci]
+6.8 +1.1 67 +6  1011.2  718  282           
15 29.01.15 120 (ЮВ) 20000 м    8/0 средняя, верхняя 
[Ac trans|Ci sp]
+2.4 -0.1 83 +1  1012.9  0.8  719  287    +8.2       
18 29.01.15 110 (В) 20000 м    10/0 средняя 
[Ac und]
+2.1 -0.2 85 +1  1013.6  0.6  719  287           
21 29.01.15 120 (ЮВ) 20000 м    10/0 средняя 
[Ac und]
+1.5 -0.2 88 1013.9  0.2  719  288           
00 30.01.15 140 (ЮВ) 20000 м    8/0 средняя 
[Ac trans]
-0 -1 93 -1  1014.3  719  290           
03 30.01.15 110 (В) 20000 м    3/0 средняя 
[Ac trans]
-2.5 -3.4 94 -4  1015.1  0.3  719  293  -2.5         
06 30.01.15 160 (Ю) 20000 м    8/0 средняя, верхняя 
[Ac trans|Ci fib]
+0.3 -0.9 92 +1  1015.7  1.1  720  290  -3.1         
09 30.01.15 130 (ЮВ) 20000 м    8/0 средняя, верхняя 
[Ac trans|Ci fib]
+5.1 +0.3 71 +3  1014.3  -0.3  720  285           
12 30.01.15 130 (ЮВ) 20000 м    8/0 средняя, верхняя 
[Ac trans|Ci fib]
+6.8 -0.8 58 +5  1013.1  -0.9  719  283           
15 30.01.15 120 (ЮВ) 20000 м    5/0 средняя 
[Ac trans]
+1.7 -1.8 78 -1  1014.7  0.5  720  288    +8.5       
18 30.01.15 130 (ЮВ) 20000 м    8/0 средняя 
[Ac trans]
-1.3 -2.2 94 -5  1015.4  0.1  720  292           
21 30.01.15 140 (ЮВ) 1200 м  дымка{туман}  8/0 средняя 
[Ac trans]
-1.7 -2.3 96 -5  1015.4  -0.1  720  292           
00 31.01.15 140 (ЮВ) 1500 м  дымка{туман}  3/0 средняя 
[Ac trans]
-2.1 -2.7 96 -6  1015.7  0.1  720  293           
03 31.01.15 150 (ЮВ) 20000 м    3/0 средняя 
[Ac trans]
-2.4 -3.3 94 -7  1015.3  0.1  720  293  -2.4         
06 31.01.15 140 (ЮВ) 7{10}  3000 м  дымка{туман}  4/4 200 м 
[St]
-1.4 -2 96 -6  1015.4  0.3  720  292  -2.8         
09 31.01.15 130 (ЮВ) 9-12{12}  10 км    8/8 150 м 
[St]
+0.4 -1 90 -4  1014  -1  719  289           
12 31.01.15 140 (ЮВ) 5{12}  10 км    8/8 180 м 
[St]
+1.4 -0.9 85 -1  1012.8  -1  718  288           
15 31.01.15 150 (ЮВ) 4000 м  дымка  10/10 100 м 
[St]
-0.2 -1.2 93 -4  1013.8  0.6  719  290    +2.3       
18 31.01.15 140 (ЮВ) 7{10}  10 км    10/6 180 м средняя 
[St|Ac und]
+0.2 -0.8 93 -4  1014.2  0.5  719  290           
21 31.01.15 140 (ЮВ) 7{11}  20000 м    6/0 средняя 
[Ac trans]
+0.4 -0.7 92 -3  1014.1  -0.1  719  289           
00 01.02.15 160 (Ю) 3{10}  10 км    4/0 средняя 
[Ac trans]
-0.5 -1.2 95 -2  1013.2  -1.1  718  290           
03 01.02.15 140 (ЮВ) 20000 м    6/0 средняя 
[Ac trans]
-0.7 -1.5 94 -4  1012.6  -0.7  718  290  -1         
06 01.02.15 130 (ЮВ) 20000 м    8/0 средняя 
[Ac trans]
+0.1 -1.1 92 -3  1012.1  -0.2  718  289  -1.3         
Время (UTC), дата Ветер
(°,м/с) 
Видим.   Явления Облачность Т
(°С)
Тd
(°С)
f(%) Тe
(°С)
Pmin
(гПа)
dP
(гПа)
Po
(мм)
O2
(г/м3)
Тmin Tmax R s Состояние
почвы